Weather History for Hayward, WI

Change the Weather History Date:

Tuesday, October 5, 2010

  Actual Average Record
Temperature  
Mean Temperature 50 °F -  
Max Temperature 70 °F 64 °F 81 °F (2011)
Min Temperature 30 °F 38 °F 23 °F (2003)
Degree Days  
Heating Degree Days 15    
Moisture  
Dew Point 37 °F    
Average Humidity 64    
Maximum Humidity 96    
Minimum Humidity 30    
Precipitation  
Precipitation 0.00 in - - ()
Sea Level Pressure  
Sea Level Pressure 30.28 in    
Wind  
Wind Speed 2 mph (South)    
Max Wind Speed 9 mph    
Max Gust Speed -    
Visibility 10 miles    
Events      
Averages and records for this station are not official NWS values.
T = Trace of Precipitation, MM = Missing Value Source: NWS Daily Summary

Daily Weather History Graph

Daily Weather History Graph

Search for Another Location

Airport:

Trip Planner

Search our weather history database for the weather conditions in past years. The results will help you decide how hot, cold, wet, or windy it might be!

Date:

Astronomy

Oct. 05, 2010 Rise Set
Actual Time 7:09 AM CDT 6:38 PM CDT
Civil Twilight 6:39 AM CDT 7:07 PM CDT
Nautical Twilight 6:04 AM CDT 7:42 PM CDT
Astronomical Twilight 5:29 AM CDT 8:17 PM CDT
Moon 4:25 AM CDT (10/5) 5:13 PM CDT (10/5)
Length of Visible Light 12h 28m
Length of Day
11h 28m
Waning Crescent, 6% of the Moon is Illuminated
Oct 5
Waning Crescent
Oct 7
New
Oct 14
First Quarter
Oct 22
Full
Oct 30
Last Quarter

Hourly Weather History & Observations

Time (CDT) Temp. Dew Point Humidity Pressure Visibility Wind Dir Wind Speed Gust Speed Precip Events Conditions
12:53 AM 34.0 °F 32.0 °F 92% 30.31 in 10.0 mi Calm Calm - N/A   Clear
1:53 AM 33.1 °F 30.9 °F 92% 30.31 in 10.0 mi Calm Calm - N/A   Clear
2:53 AM 32.0 °F 30.0 °F 92% 30.32 in 10.0 mi Calm Calm - N/A   Clear
3:53 AM 32.0 °F 30.0 °F 92% 30.32 in 10.0 mi Calm Calm - N/A   Clear
4:53 AM 30.0 °F 28.9 °F 96% 30.33 in 10.0 mi Calm Calm - N/A   Clear
5:53 AM 30.0 °F 28.0 °F 92% 30.33 in 10.0 mi Calm Calm - N/A   Clear
6:53 AM 30.0 °F 28.0 °F 92% 30.35 in 10.0 mi Calm Calm - N/A   Clear
7:53 AM 32.0 °F 30.0 °F 92% 30.36 in 10.0 mi Calm Calm - N/A   Clear
8:53 AM 46.9 °F 39.9 °F 77% 30.35 in 10.0 mi Calm Calm - N/A   Clear
9:53 AM 54.0 °F 39.0 °F 57% 30.35 in 10.0 mi SSE 6.9 mph - N/A   Clear
10:53 AM 57.9 °F 39.9 °F 51% 30.34 in 10.0 mi South 6.9 mph - N/A   Clear
11:53 AM 64.0 °F 42.1 °F 45% 30.33 in 10.0 mi Variable 5.8 mph - N/A   Clear
12:53 PM 66.9 °F 39.9 °F 37% 30.31 in 10.0 mi South 9.2 mph - N/A   Clear
1:53 PM 68.0 °F 39.0 °F 35% 30.28 in 10.0 mi SSW 6.9 mph - N/A   Clear
2:53 PM 70.0 °F 37.9 °F 31% 30.26 in 10.0 mi SSW 6.9 mph - N/A   Clear
3:53 PM 70.0 °F 37.0 °F 30% 30.25 in 10.0 mi SSW 8.1 mph - N/A   Clear
4:53 PM 70.0 °F 37.9 °F 31% 30.24 in 10.0 mi SSW 5.8 mph - N/A   Clear
5:53 PM 66.9 °F 39.0 °F 36% 30.23 in 10.0 mi South 4.6 mph - N/A   Clear
6:53 PM 61.0 °F 39.9 °F 46% 30.23 in 10.0 mi South 4.6 mph - N/A   Clear
7:53 PM 53.1 °F 42.1 °F 66% 30.22 in 10.0 mi Calm Calm - N/A   Clear
8:53 PM 57.9 °F 41.0 °F 53% 30.20 in 10.0 mi South 5.8 mph - N/A   Clear
9:53 PM 55.0 °F 42.1 °F 62% 30.20 in 10.0 mi Calm Calm - N/A   Clear
10:53 PM 51.1 °F 42.1 °F 71% 30.19 in 10.0 mi Calm Calm - N/A   Clear
11:53 PM 50.0 °F 42.1 °F 74% 30.19 in 10.0 mi South 3.5 mph - N/A   Clear